User: anonymous   Login
Location: Unspecified
(0.0000°N, 0.0000°E)
Time: 05:42:55
(UTC+00:00)
Language:

OBJECT AP - Orbit

View from above orbital plane
View from above orbital plane
View from above satellite
View from above satellite

Ground track
Ground track

The orbit is defined by the following mean orbital elements,

1 67285U          26145.44363362 +.00000000 +00000-0 +27883-3 0 00001
2 67285  97.3924 220.5944 0011912  83.7651 276.4943 15.23376257    00
Epoch (UTC): 25 May 2026 10:38:49
Eccentricity: 0.0011912
inclination: 97.3924°
perigee height: 487 km
apogee height: 504 km
right ascension of ascending node: 220.5944°
argument of perigee: 83.7651°
revolutions per day: 15.23376257
mean anomaly at epoch: 276.4943°

The dashed part of the orbit path shows where the satellite is in the earth's shadow,  

DLR